パンスターズ彗星

C/2014 A5 ( PanSTARRS )

English version
Home page
Updated on June 11, 2016

---------------------------------------------------------------------

・ プロフィール

発見日 2014年1月4日
発見光度 21.4等
発見者 Pan-STARRS 1 telescope (Haleakala)

・ 写真集

・ 軌道要素

Epoch 2014 Aug. 11.0 TT = JDT 2456880.5
T 2014 Aug. 13.61274 TT                                 MPCW
q   4.8003238            (2000.0)            P               Q
z  +0.0080643      Peri.  182.59276     -0.67284780     -0.61894216
 +/-0.0000000      Node   310.10273     +0.68791191     -0.32199113
e   0.9612890      Incl.   31.98842     +0.27212689     -0.71640234
From 36 observations 2014 Jan. 4-2015 Mar. 23, mean residual 0".4.

・ 光度変化

        m1 = 10.0 + 5 logΔ + 10.0 log r

---------------------------------------------------------------------

軌道要素はM.P.E.C. 2015-G03に掲載されたものです。
光度グラフはComet for Windowsで作成したものです。

---------------------------------------------------------------------

Copyright(C) Seiichi Yoshida (comet@aerith.net). All rights reserved.